Location: Blangy-Tronville
(49.8790°N, 2.4226°E)
Time: 22:11:04
(UTC+00:00)

ISS - Pass Details

Date: 18 November 2025
Orbit: 416 x 421 km, 51.6° (Epoch: 05 December)

Event Time Altitude Azimuth Distance (km) Brightness Sun altitude
Rises 17:56:57 0° 253° (WSW) 2,364 1.7 -18.1°
Reaches altitude 10° 17:59:03 10° 254° (WSW) 1,501 0.3 -18.4°
Maximum altitude 18:02:26 88° 344° (NNW) 425 -3.9 -19.0°
Enters shadow 18:02:43 73° 67° (ENE) 443 -3.9 -19.0°
